Regional Weather Roundup
Issued by NWS Sterling, VA

Home | Current Version | Previous Version | Graphics & Text | Print | Product List | Glossary On
Versions: 1 2 3 4 5 6 7 8 9 10 11 12 13 14 15 16 17 18 19 20 21 22 23 24 25 26 27
000
ASUS41 KLWX 221211
RWRLWX

REGIONAL WEATHER ROUNDUP
NATIONAL WEATHER SERVICE BALTIMORE MD/WASHINGTON DC
800 AM EDT TUE AUG 22 2017

Note: "FAIR" indicates few or no clouds below 12,000 feet
with no significant weather and/or obstructions to visibility.
 TC=TEMPERATURE CELSIUS

 * =Non NWS site. Station does not report precipitation (e.g. rain,
    snow, etc.), thunder, or fog.

DCZ001-MDZ009-015-VAZ040>042-051-053>054-221300-
WASHINGTON METRO

CITY           SKY/WX    TMP DP  RH WIND       PRES   REMARKS
WASHINGTON NAT MOSUNNY   77  75  93 S6        30.06R
DULLES         MOSUNNY   73  72  96 S7        30.06S
ANDREWS AFB    SUNNY     76  72  87 SW8       30.05S
FT BELVOIR     SUNNY     75  73  91 S3        30.05S
QUANTICO       MOSUNNY   77  74  90 SW5       30.06S
COLLEGE PARK*  SUNNY     76  72  86 CALM      30.04S
LEESBURG*      SUNNY     72  72 100 CALM      30.06F
MANASSAS*      SUNNY     71  70  96 CALM      30.06S
GAITHERSBURG*  SUNNY     75  71  87 SW5       30.07S

$$

MDZ006>007-011-014-221300-
BALTIMORE METRO

CITY           SKY/WX    TMP DP  RH WIND       PRES   REMARKS
BWI AIRPORT    MOSUNNY   74  74 100 CALM      30.04S
MD SCIENCE CTR   N/A     77  73  87 MISG      30.06R
MARTIN STATE   MOSUNNY   75  75 100 CALM      30.05F
FORT MEADE*    SUNNY     68  68 100 CALM      30.07S

$$

MDZ012-015-019>023-221300-
MARYLAND EASTERN SHORE

CITY           SKY/WX    TMP DP  RH WIND       PRES   REMARKS
OCEAN CITY     SUNNY     80  76  87 SW9       30.09S
SALISBURY      SUNNY     78  77  96 SW7       30.08S
BAY BRIDGE AP* SUNNY     79  73  83 SW7       30.05S
CAMBRIDGE*     SUNNY     79  75  89 S5        30.07S

$$

MDZ017>025-221300-
SOUTHERN MARYLAND

CITY           SKY/WX    TMP DP  RH WIND       PRES   REMARKS
PATUXENT RIVER MOSUNNY   78  75  90 SW10      30.06S
ST INIGOES     SUNNY     79  76  90 S8        30.07S
LEONARDTOWN*   SUNNY     77  72  83 S5        30.09S

$$

MDZ003>005-221300-
NORTH CENTRAL MARYLAND

CITY           SKY/WX    TMP DP  RH WIND       PRES   REMARKS
FREDERICK*     SUNNY     73  73 100 CALM      30.08S FOG
HAGERSTOWN APT SUNNY     73  70  90 CALM      30.06S
WESTMINSTER*   SUNNY     73  72  94 SW3       30.06S

$$

MDZ501>502-221300-
WESTERN MARYLAND

CITY           SKY/WX    TMP DP  RH WIND       PRES   REMARKS
OAKLAND*       SUNNY     64  63  94 SW7       30.12F
CUMBERLAND*    CLOUDY    68  68 100 CALM      30.11S VSB 1/2

$$

VAZ025>031-221300-
SHENANDOAH VALLEY

CITY           SKY/WX    TMP DP  RH WIND       PRES   REMARKS
WINCHESTER*    SUNNY     72  68  88 SW6       30.06S
FRONT ROYAL*   SUNNY     72  70  94 S3        30.07R
LURAY*         FOG       70  70 100 CALM      30.09S VSB 1
NEW MARKET*    SUNNY     70  67  92 SW3       30.09F
STAUNTON*      MOSUNNY   67  66  97 CALM      30.13S FOG
WAYNESBORO*    SUNNY     70  69  96 CALM      30.13S

$$

WVZ021-048>050-054>055-221300-
EASTERN WEST VIRGINIA PANHANDLE

CITY           SKY/WX    TMP DP  RH WIND       PRES   REMARKS
MARTINSBURG    SUNNY     71  68  90 CALM      30.04S FOG
PETERSBURG*    FOG       67  67 100 CALM      30.09F VSB 1/2

$$

VAZ036>039-050-221300-
CENTRAL FOOTHILLS

CITY           SKY/WX    TMP DP  RH WIND       PRES   REMARKS
CHARLOTTESVILL MOSUNNY   74  71  91 S8        30.08S
CULPEPER*      SUNNY     72  72  99 S3        30.07S
ORANGE*        PTSUNNY   72  70  94 CALM      30.08S
GORDONSVILLE*  CLOUDY    73  72  98 SW5       30.08R
WARRENTON*     SUNNY     73  69  89 SW3       30.06R FOG

$$

VAZ055>057-221300-
NORTH AND CENTRAL PIEDMONT

CITY           SKY/WX    TMP DP  RH WIND       PRES   REMARKS
FREDERICKSBRG* SUNNY     75  75 100 CALM      30.06R
STAFFORD*      SUNNY     73  73 100 CALM      30.10S FOG

$$

NCZ024-NYZ072-PAZ021-071-VAZ022-071-221300-
OTHER REGIONAL OBSERVATIONS

CITY           SKY/WX    TMP DP  RH WIND       PRES   REMARKS
NEW YORK CITY  PTSUNNY   76  72  87 SW5       30.05F
PHILADELPHIA   CLOUDY    77  74  90 SW7       30.05S FOG
PITTSBURGH     PTSUNNY   73  69  87 S6        30.01S
ROANOKE        PTSUNNY   72  70  93 CALM      30.15S
RICHMOND       MOSUNNY   75  74  96 S6        30.09S
RALEIGH        MOSUNNY   77  75  93 SW3       30.13S

$$

ANZ530>537-221300-
MARINE OBSERVATIONS

STATION/POSITION TIME  TEMP    WIND        PRES
                       AIR SEA DIR/SP/G
                 (UTC) (F)     (DEG/KT/KT) (MB)
THOMAS PT LIGHT  1200   78 80  210/  7/  8   N/A
BALT KEY BRIDGE  1148   74     210/  4/  4 1017.1F
COVE POINT       1148   78     240/ 14/ 18 1018.4F
LEWISETTA        1148   78 83  220/ 10/ 12 1018.2S
SOLOMONS ISLAND  1148   80 82  220/ 10/ 13   N/A
PINEY POINT      1142          230/  9/ 12   N/A

$$





USA.gov is the U.S. government's official web portal to all federal, state and local government web resources and services.